Location: Saluda
(35.2377°N, 82.3468°W)
Time: 15:49:55
(UTC+00:00)

Explorer 11/Cluster Stage 4 - Pass Details

Date: 12 October 2022
Orbit: 466 x 1247 km, 28.8° (Epoch: 08 December)

Event Time Altitude Azimuth Distance (km) Brightness Sun altitude
Rises 11:43:31 0° 219° (SW) 3,406 9.6 1.3°
Reaches altitude 10° 11:46:20 10° 206° (SSW) 2,606 9.1 1.8°
Maximum altitude 11:51:26 25° 153° (SSE) 1,946 9.2 2.9°
Drops below altitude 10° 11:57:17 10° 102° (ESE) 3,030 12.5 4.0°
Sets 12:00:50 0° 91° (E) 4,083 12.4 4.7°
